Wind_Speed
21 19 18 16 16 14 9 10 10 7 9 12 19 24 21 17 14 14 12 11 10 9 10 11 13 15 16 17 18 20 21 22 22 22 22 21 21 21 20 19 18 18 17 17 17 18 19 20 20
17 16 15 15 17 16 14 13 10 9 8 12 19 21 18 14 11 9 8 7 8 8 8 9 10 11 13 15 16 18 19 19 19 19 19 18 18 18 18 17 17 17 17 18 19 20 20 21 22
12 13 14 18 21 19 17 14 7 8 11 15 18 17 13 7 5 6 7 9 10 10 8 8 8 9 11 13 16 17 18 18 17 17 16 16 16 16 16 17 17 18 19 21 21 21 21 22 23
13 15 19 24 23 18 15 13 7 7 13 15 13 10 5 2 5 7 9 11 11 10 9 8 7 7 8 11 14 17 17 17 17 16 15 14 14 14 15 16 18 19 21 21 20 18 17 18 19
15 20 25 26 21 15 12 10 6 7 14 14 9 4 1 2 7 9 10 11 11 11 11 9 7 7 7 8 10 11 12 13 14 13 12 12 12 12 13 15 17 18 18 17 16 16 16 17 19
19 24 28 25 20 16 12 7 2 8 16 13 6 1 1 4 10 12 11 10 11 11 11 10 9 8 7 7 8 7 8 8 9 9 10 11 12 13 15 16 17 17 17 17 18 20 20 20 21
22 27 27 24 19 15 9 3 6 12 16 12 6 1 3 8 12 13 14 12 12 11 10 10 10 10 9 8 8 8 9 9 10 10 11 12 13 14 15 16 17 18 19 20 22 23 23 22 22
26 29 27 24 19 12 5 2 8 14 15 12 8 5 6 8 12 13 13 13 12 11 11 10 9 9 9 9 9 8 9 10 10 11 12 13 14 15 16 18 20 21 22 23 24 24 23 23 23
25 29 28 24 19 14 8 5 9 13 14 13 12 8 6 7 10 12 13 13 12 12 12 11 10 9 8 8 10 9 9 9 9 11 12 14 15 16 18 19 20 20 20 21 21 21 22 22 23
26 28 26 24 21 18 13 9 10 13 14 13 11 11 9 6 8 12 12 12 12 13 14 12 11 10 8 8 9 10 10 9 8 9 11 13 14 15 15 16 17 18 18 18 18 18 19 21 23
26 27 26 25 23 19 14 12 14 16 16 14 13 14 8 7 7 10 12 11 12 13 13 13 13 12 11 10 9 10 11 10 9 9 10 11 12 12 12 12 13 14 14 14 15 17 18 20 20
27 28 27 26 23 19 16 15 18 20 18 16 15 15 14 13 12 12 14 12 12 13 14 14 15 14 13 12 11 11 11 11 11 11 10 10 10 9 8 8 9 10 10 11 12 14 15 17 18
25 28 27 27 25 20 19 22 22 22 20 18 17 17 18 18 15 14 14 16 16 16 15 14 15 15 15 15 14 13 14 14 15 14 11 10 10 11 12 11 11 12 12 12 13 14 15 16 18
27 31 31 29 26 21 23 27 26 25 25 21 18 18 20 22 20 18 17 18 20 19 18 16 16 15 14 14 14 14 16 16 17 17 15 14 14 15 16 16 16 16 17 18 19 19 19 20 21
31 33 30 28 26 22 21 26 29 27 28 25 21 21 23 25 24 22 21 20 23 24 22 20 20 19 17 15 13 13 14 16 17 19 19 18 18 19 20 20 21 22 23 24 25 26 26 27 27
33 32 29 27 27 24 23 21 25 28 30 28 24 23 27 29 29 27 25 24 26 26 25 24 23 24 23 19 17 15 16 18 20 23 24 25 26 26 27 27 27 28 29 31 32 32 33 34 34
34 32 30 28 27 24 24 19 20 27 30 30 27 26 29 32 33 33 31 30 29 28 27 28 27 28 29 27 23 21 20 21 24 26 28 29 30 31 32 33 33 34 34 35 36 38 39 40 41
31 32 32 29 24 24 21 18 17 22 28 31 30 29 31 34 35 36 36 34 32 30 32 33 32 31 32 32 30 27 26 26 28 30 32 32 33 34 36 37 37 37 38 39 40 41 43 44 46
30 32 33 30 28 29 27 23 20 21 26 30 31 31 33 35 36 37 37 37 35 34 35 36 36 35 34 34 32 32 31 31 33 35 36 35 36 38 40 42 41 41 41 42 44 45 46 47 48
32 33 31 29 30 31 30 28 25 23 25 28 30 32 36 38 39 38 39 39 38 37 37 37 38 39 38 36 35 35 35 36 39 40 39 38 39 41 44 45 45 45 45 45 46 47 49 50 51
31 31 30 30 31 33 34 32 27 25 25 27 31 35 39 42 43 43 42 41 40 38 37 38 40 41 40 39 38 37 38 40 42 43 42 41 42 45 46 47 46 46 45 46 48 49 50 52 53
28 27 28 30 33 34 35 35 30 29 29 31 33 36 39 42 43 43 42 38 36 36 37 39 41 42 42 40 39 39 39 41 43 43 42 43 44 45 46 47 47 47 48 49 49 50 51 51 51
25 24 25 28 31 33 33 36 33 32 35 36 38 38 39 42 43 40 35 33 33 36 38 39 41 41 41 40 40 39 38 39 42 43 43 45 45 46 47 48 49 49 50 50 51 52 51 50 51
21 21 25 27 28 26 21 29 28 26 34 39 42 42 41 42 41 36 32 32 34 36 39 41 40 39 38 38 38 38 38 39 41 42 44 46 46 48 49 49 49 49 50 52 53 53 53 54 56
20 22 24 24 22 16 13 20 15 17 26 31 32 31 31 32 32 31 31 32 35 38 41 42 42 37 35 36 37 38 38 39 41 43 44 45 47 47 48 48 48 49 51 52 53 54 55 57 59
21 22 22 21 19 15 17 17 14 18 20 21 21 20 21 24 27 29 30 32 37 41 43 42 40 35 31 33 35 37 39 40 41 43 44 46 47 48 49 49 51 53 53 53 54 56 58 59 60
19 21 21 22 22 20 20 19 18 20 20 20 20 20 21 23 26 29 33 36 40 42 42 39 35 30 30 33 36 39 41 43 45 46 47 48 49 51 51 52 54 54 55 56 57 59 60 60 59
24 21 23 25 25 24 22 20 21 24 25 27 27 25 26 29 31 32 34 36 36 37 36 35 31 30 32 35 39 42 45 47 47 48 49 49 50 50 50 52 54 56 57 57 59 60 61 60 58
26 27 26 25 24 24 23 21 21 22 24 27 29 29 29 32 34 35 36 37 37 37 36 32 30 31 34 38 42 45 48 50 50 50 50 50 51 53 55 56 58 59 59 60 62 63 62 60 59
26 29 28 26 25 23 24 24 25 27 28 29 31 33 34 35 35 37 38 39 37 36 34 30 30 33 37 41 45 48 50 51 50 49 51 53 55 56 57 58 58 59 60 62 63 62 60 59 59
Wind_Direction
228 224 217 201 189 181 201 249 255 266 300 321 325 322 318 319 324 329 323 316 308 304 301 293 284 278 276 276 272 267 262 260 259 260 261 262 262 263 264 266 266 264 262 263 264 265 266 267 267
228 226 217 203 187 179 203 229 250 267 294 306 309 310 303 305 320 330 331 339 347 339 327 316 304 293 285 281 277 274 269 264 260 258 258 258 259 259 261 262 262 263 266 269 269 268 268 268 268
216 207 193 175 165 174 201 212 221 280 299 301 303 298 291 307 341 351 353 359 0 352 342 331 319 305 291 282 277 274 270 265 260 255 252 252 251 253 257 260 261 262 265 267 268 268 268 270 271
193 182 169 161 160 177 189 189 170 272 298 304 302 288 279 358 25 8 360 360 1 358 357 352 342 329 309 293 282 274 266 260 254 249 247 248 250 255 259 262 263 264 266 265 264 265 269 274 275
176 169 161 158 163 175 185 181 156 282 296 298 295 265 187 56 30 10 356 352 354 355 356 354 355 351 338 318 298 284 273 265 257 252 250 251 253 257 262 266 267 266 263 261 262 266 271 275 277
170 166 159 159 165 179 184 199 223 294 296 289 279 231 99 40 29 13 0 354 347 349 353 356 360 359 352 340 324 308 295 285 278 272 269 265 263 266 269 270 269 265 262 262 266 269 271 274 275
165 163 159 161 169 181 183 227 317 298 291 280 274 300 19 38 32 18 8 6 353 344 342 346 355 359 359 353 343 324 309 298 288 281 274 269 270 271 269 268 268 267 268 269 272 274 277 278 276
167 164 161 165 171 170 160 290 301 292 285 278 278 307 342 28 31 19 6 4 358 351 344 339 345 355 359 360 351 333 316 305 294 286 280 276 275 275 274 273 274 275 277 278 278 278 278 277 276
172 169 173 175 172 160 159 244 279 289 287 278 278 287 324 10 23 16 7 3 4 2 359 351 347 347 344 349 352 343 325 310 299 290 284 282 283 284 283 283 284 284 284 284 283 281 280 279 280
174 179 186 185 176 167 168 207 249 268 275 278 275 283 300 343 2 1 357 356 3 6 10 12 8 360 346 339 343 347 341 328 309 298 291 288 289 292 293 293 291 289 288 287 286 285 284 284 284
182 189 193 187 181 178 175 203 230 244 257 267 279 287 296 315 325 330 332 340 355 358 2 8 12 10 0 346 344 347 346 340 327 313 302 297 299 302 303 301 298 296 296 294 291 289 287 287 286
193 197 198 195 192 190 189 212 231 238 246 257 275 290 295 302 305 313 322 322 342 351 356 357 357 360 2 359 357 353 344 336 327 318 309 302 302 304 306 308 309 309 310 307 299 294 293 292 289
205 204 203 205 204 209 203 209 228 242 252 263 276 285 291 295 301 311 320 317 325 336 340 346 346 346 348 352 354 350 345 338 329 322 314 309 307 306 306 306 306 305 307 308 307 303 301 297 294
213 213 214 218 224 229 214 210 221 237 251 261 270 281 288 291 296 306 312 309 318 324 327 331 333 334 335 338 344 344 343 340 334 328 325 322 315 312 313 313 311 308 304 300 296 291 287 284 283
219 223 226 230 236 236 228 217 222 237 251 260 266 277 283 288 294 298 301 300 312 318 320 321 323 321 321 321 324 328 329 329 329 329 329 327 325 324 323 321 317 313 309 305 302 299 296 293 291
227 231 234 237 242 242 238 227 225 235 249 256 263 272 279 285 290 293 294 294 304 312 316 318 319 315 313 311 309 309 312 315 317 320 323 322 322 321 319 318 319 320 317 313 309 305 301 298 296
234 237 238 238 245 250 250 240 224 228 242 251 260 267 275 282 287 292 293 294 300 306 313 316 317 313 310 309 307 304 303 306 309 311 312 313 313 313 311 310 311 311 311 311 308 304 300 297 295
238 240 239 237 239 239 240 239 224 222 232 245 255 263 271 278 285 290 292 295 300 305 310 314 312 309 307 306 303 300 299 300 301 301 300 301 302 301 301 301 301 301 302 302 302 300 298 296 295
232 235 236 233 229 232 232 235 229 221 226 237 248 259 268 276 282 287 292 296 300 304 308 310 306 302 301 298 294 292 291 291 292 293 292 292 293 293 293 292 293 294 296 297 297 295 294 294 294
228 231 232 229 227 234 236 238 239 235 231 234 247 258 268 275 281 287 291 295 298 302 304 304 301 296 292 291 288 285 283 283 284 287 288 289 289 288 288 288 290 292 294 295 294 293 294 295 295
229 230 229 227 222 230 239 240 238 240 237 234 242 254 266 274 280 285 290 294 296 298 299 298 295 292 288 286 285 282 279 279 282 285 287 288 286 285 286 289 290 293 295 296 295 294 295 296 296
223 227 229 227 227 229 238 243 236 235 233 233 239 249 260 269 275 281 286 290 292 293 293 294 293 289 285 286 286 283 280 280 283 286 288 287 287 288 289 291 294 296 297 296 295 294 295 297 297
218 220 227 233 238 237 236 245 243 237 238 240 243 249 257 266 273 278 282 285 286 286 288 292 291 288 286 285 286 285 282 282 284 286 286 287 290 292 293 294 296 297 296 295 295 295 296 296 297
219 227 235 240 244 247 245 250 250 241 242 244 247 252 256 262 267 271 277 280 281 282 284 287 286 284 283 284 285 284 284 285 286 287 289 290 293 294 294 295 295 295 295 295 295 296 296 296 296
215 228 237 241 244 246 235 243 239 229 237 243 247 249 249 251 259 267 271 272 273 273 276 279 279 278 282 285 285 286 287 287 287 288 290 291 292 294 294 294 294 294 294 295 294 295 295 295 295
218 229 238 245 248 241 225 236 240 237 242 248 254 256 257 258 263 268 269 267 268 270 273 275 279 284 286 286 286 288 289 290 291 290 291 292 293 293 293 292 293 293 293 293 294 295 294 295 294
231 241 250 253 251 250 239 241 248 250 255 262 269 273 274 273 271 270 270 269 271 274 278 278 281 284 283 284 286 288 291 293 293 293 294 295 296 296 296 295 294 293 294 295 296 295 296 296 295
228 240 248 250 252 251 246 244 247 248 252 256 261 265 267 268 269 270 272 275 278 284 285 283 280 279 280 282 285 289 291 293 293 293 294 295 297 298 298 298 296 295 296 297 298 298 297 296 295
223 228 238 246 249 253 256 255 253 252 251 253 257 262 265 267 269 272 277 280 284 289 288 279 276 277 279 281 284 287 289 291 291 292 293 296 299 300 299 297 296 294 295 296 299 298 295 294 294
227 228 234 239 244 250 255 256 257 256 256 258 262 265 266 268 271 274 279 280 285 289 282 274 273 275 277 279 282 285 287 289 289 292 295 298 300 300 298 296 294 294 295 297 299 298 295 294 296
Height
5892 5895 5898 5902 5905 5906 5904 5901 5901 5900 5901 5903 5904 5903 5901 5901 5901 5903 5899 5896 5895 5894 5893 5893 5893 5893 5893 5892 5892 5892 5891 5891 5891 5891 5891 5892 5892 5893 5894 5895 5895 5895 5895 5895 5895 5895 5895 5895 5894
5890 5893 5896 5899 5902 5904 5903 5901 5901 5900 5903 5905 5906 5905 5903 5901 5900 5899 5898 5896 5895 5893 5891 5890 5890 5890 5890 5891 5891 5890 5890 5889 5889 5889 5889 5890 5890 5890 5891 5892 5893 5893 5893 5893 5892 5892 5892 5891 5891
5889 5891 5894 5896 5899 5901 5901 5901 5900 5899 5902 5904 5906 5905 5902 5901 5900 5898 5896 5895 5894 5892 5890 5889 5888 5888 5888 5888 5888 5888 5888 5888 5888 5888 5888 5888 5889 5889 5889 5890 5890 5890 5890 5890 5889 5889 5888 5888 5887
5887 5890 5892 5895 5897 5899 5899 5899 5897 5898 5901 5903 5904 5903 5901 5900 5899 5897 5895 5894 5893 5891 5890 5888 5887 5887 5886 5886 5886 5886 5886 5886 5886 5886 5886 5886 5887 5887 5887 5887 5887 5887 5887 5887 5886 5886 5885 5885 5884
5886 5888 5891 5893 5895 5896 5896 5895 5895 5897 5900 5902 5903 5901 5900 5900 5899 5896 5894 5893 5892 5891 5890 5888 5887 5886 5886 5885 5885 5884 5884 5885 5884 5884 5884 5885 5885 5885 5885 5885 5885 5884 5884 5884 5884 5883 5882 5881 5880
5885 5887 5889 5891 5893 5894 5894 5894 5894 5895 5899 5901 5901 5900 5899 5900 5899 5897 5895 5894 5893 5891 5890 5888 5887 5886 5885 5884 5884 5883 5883 5883 5883 5884 5884 5884 5884 5884 5883 5883 5882 5882 5882 5881 5881 5880 5879 5878 5877
5885 5887 5889 5891 5892 5892 5893 5893 5893 5895 5898 5899 5900 5899 5899 5899 5899 5898 5895 5894 5893 5892 5890 5888 5887 5886 5885 5884 5883 5883 5882 5882 5882 5882 5882 5882 5882 5881 5881 5880 5880 5879 5879 5878 5878 5877 5876 5874 5873
5883 5886 5888 5890 5890 5890 5891 5892 5894 5896 5897 5897 5898 5899 5899 5899 5899 5898 5895 5894 5893 5891 5890 5888 5887 5886 5885 5884 5882 5882 5881 5881 5881 5881 5881 5880 5880 5880 5879 5878 5878 5877 5876 5875 5874 5873 5871 5870 5869
5882 5885 5886 5888 5888 5888 5890 5893 5895 5896 5895 5896 5896 5898 5899 5899 5899 5898 5896 5894 5892 5891 5889 5887 5886 5885 5884 5883 5882 5881 5880 5880 5879 5879 5879 5878 5878 5878 5877 5876 5875 5874 5873 5871 5870 5868 5867 5866 5865
5881 5883 5885 5886 5886 5885 5887 5891 5894 5895 5894 5894 5895 5896 5898 5898 5897 5898 5897 5894 5892 5890 5889 5887 5886 5884 5883 5882 5881 5880 5879 5879 5878 5877 5876 5876 5875 5875 5874 5872 5871 5870 5869 5868 5866 5865 5863 5862 5862
5879 5881 5883 5883 5883 5883 5884 5888 5891 5892 5892 5892 5893 5895 5896 5897 5896 5896 5896 5895 5892 5890 5888 5886 5885 5883 5882 5881 5880 5879 5878 5878 5877 5876 5874 5873 5872 5871 5870 5869 5868 5867 5866 5865 5863 5862 5860 5859 5858
5877 5878 5879 5879 5879 5879 5880 5884 5887 5888 5889 5889 5891 5892 5893 5894 5895 5895 5895 5894 5893 5891 5888 5886 5884 5882 5881 5880 5878 5878 5877 5876 5875 5874 5872 5871 5870 5869 5868 5867 5866 5864 5863 5862 5860 5858 5857 5855 5854
5875 5875 5876 5876 5877 5877 5878 5881 5883 5884 5885 5886 5887 5888 5889 5890 5891 5892 5893 5893 5891 5890 5888 5885 5884 5882 5880 5878 5877 5876 5874 5873 5872 5871 5870 5869 5868 5866 5865 5864 5863 5861 5859 5858 5857 5856 5854 5853 5851
5872 5871 5872 5873 5874 5875 5876 5878 5880 5881 5881 5882 5883 5884 5885 5886 5886 5889 5891 5890 5888 5887 5885 5884 5882 5881 5879 5877 5875 5874 5872 5871 5870 5868 5867 5866 5865 5863 5861 5859 5858 5857 5856 5855 5854 5853 5852 5849 5847
5865 5866 5868 5871 5872 5873 5874 5876 5878 5878 5878 5878 5879 5880 5880 5881 5882 5884 5886 5886 5884 5882 5881 5880 5878 5877 5877 5876 5874 5873 5871 5870 5868 5866 5864 5863 5862 5860 5857 5856 5854 5853 5851 5850 5848 5847 5845 5843 5841
5859 5862 5866 5869 5869 5870 5872 5874 5877 5876 5874 5873 5874 5875 5875 5876 5877 5879 5881 5881 5880 5877 5875 5875 5874 5872 5871 5871 5871 5870 5868 5866 5864 5861 5859 5858 5856 5854 5851 5850 5848 5847 5844 5842 5840 5838 5837 5835 5833
5855 5858 5861 5864 5866 5867 5867 5870 5873 5873 5870 5869 5869 5870 5870 5871 5871 5873 5875 5876 5875 5872 5870 5869 5868 5866 5863 5863 5863 5863 5862 5861 5858 5856 5854 5853 5850 5848 5845 5843 5841 5839 5838 5836 5834 5831 5829 5826 5825
5851 5853 5855 5859 5861 5861 5861 5863 5867 5868 5867 5866 5865 5865 5866 5866 5867 5867 5868 5869 5868 5866 5864 5863 5861 5859 5857 5856 5855 5855 5855 5854 5852 5851 5849 5847 5845 5843 5840 5837 5835 5833 5831 5829 5827 5825 5821 5819 5816
5843 5845 5848 5853 5855 5853 5853 5855 5858 5861 5862 5862 5862 5861 5861 5861 5862 5862 5862 5861 5861 5860 5859 5857 5856 5854 5853 5851 5850 5849 5849 5848 5846 5843 5841 5840 5838 5835 5832 5830 5828 5825 5823 5821 5819 5815 5812 5809 5807
5835 5837 5841 5846 5849 5847 5847 5848 5851 5854 5856 5857 5857 5856 5856 5855 5855 5855 5856 5855 5854 5854 5853 5852 5851 5849 5847 5845 5845 5844 5843 5841 5838 5835 5832 5830 5828 5826 5823 5820 5819 5817 5814 5812 5809 5805 5802 5798 5795
5829 5832 5836 5839 5841 5840 5841 5843 5846 5848 5850 5852 5853 5853 5851 5850 5849 5849 5849 5850 5849 5849 5848 5847 5845 5842 5840 5837 5837 5836 5835 5833 5831 5827 5824 5822 5819 5816 5814 5812 5810 5807 5804 5801 5798 5795 5791 5787 5783
5824 5828 5830 5832 5833 5834 5836 5836 5841 5842 5844 5845 5847 5848 5847 5845 5844 5844 5845 5845 5844 5843 5842 5840 5838 5835 5831 5829 5828 5828 5826 5825 5823 5819 5816 5813 5810 5807 5805 5802 5800 5798 5794 5791 5787 5784 5781 5776 5771
5819 5822 5824 5825 5827 5829 5831 5831 5835 5838 5838 5840 5841 5841 5841 5840 5839 5839 5839 5839 5839 5837 5836 5834 5830 5827 5824 5821 5821 5820 5819 5817 5815 5812 5808 5805 5801 5798 5796 5793 5790 5787 5783 5780 5776 5772 5769 5764 5760
5814 5817 5819 5820 5821 5824 5827 5826 5828 5832 5832 5833 5833 5834 5835 5834 5833 5832 5833 5833 5832 5831 5829 5827 5824 5820 5817 5815 5815 5813 5811 5810 5807 5804 5800 5796 5793 5790 5786 5783 5780 5776 5772 5769 5764 5761 5757 5752 5747
5808 5812 5814 5815 5816 5820 5821 5820 5823 5823 5823 5823 5823 5824 5826 5827 5826 5826 5827 5827 5826 5823 5821 5818 5815 5811 5809 5809 5807 5806 5804 5802 5800 5797 5793 5789 5785 5781 5777 5773 5769 5766 5762 5758 5754 5750 5746 5740 5735
5803 5806 5809 5811 5813 5814 5815 5815 5817 5817 5817 5817 5817 5818 5819 5820 5820 5820 5820 5819 5817 5815 5812 5809 5805 5803 5802 5802 5801 5799 5797 5795 5792 5788 5785 5780 5776 5772 5768 5764 5760 5755 5751 5747 5742 5738 5732 5727 5721
5799 5801 5804 5806 5807 5808 5809 5811 5811 5811 5811 5811 5811 5812 5813 5814 5814 5814 5812 5811 5810 5807 5804 5801 5799 5797 5796 5795 5793 5791 5789 5786 5782 5778 5774 5770 5765 5761 5757 5753 5749 5744 5739 5734 5729 5723 5717 5711 5705
5794 5797 5798 5799 5800 5801 5803 5805 5806 5805 5805 5805 5805 5806 5807 5807 5806 5806 5805 5803 5802 5800 5797 5793 5791 5790 5789 5788 5786 5783 5780 5776 5773 5769 5764 5760 5755 5751 5746 5741 5736 5731 5725 5720 5714 5708 5703 5697 5690
5786 5789 5790 5792 5793 5794 5796 5800 5799 5800 5800 5800 5799 5799 5799 5799 5798 5798 5797 5795 5794 5792 5789 5787 5785 5784 5782 5780 5777 5774 5770 5766 5762 5758 5754 5749 5745 5740 5735 5729 5723 5718 5711 5706 5700 5695 5689 5682 5676
5779 5781 5783 5785 5786 5788 5789 5794 5792 5792 5793 5793 5793 5792 5791 5791 5790 5790 5789 5787 5786 5783 5781 5780 5778 5777 5774 5771 5768 5764 5760 5756 5752 5747 5742 5737 5732 5727 5722 5716 5710 5704 5698 5692 5686 5679 5674 5668 5662